Change the Weather History Date:

Friday, July 5, 2013

  Actual Average Record
Temperature  
Mean Temperature 83 °F 81 °F  
Max Temperature 93 °F 92 °F 100 °F (1998)
Min Temperature 72 °F 71 °F 65 °F (1948)
Cooling Degree Days 18 16  
Month to date cooling degree days 82 80  
Year to date cooling degree days 1197 924  
Since 1 June cooling degree days 635 512  
Growing Degree Days 32 (Base 50)    
Moisture  
Dew Point 71 °F    
Average Humidity 70    
Maximum Humidity 87    
Minimum Humidity 52    
Precipitation  
Precipitation T in 0.20 in 1.21 in (2001)
Month to date precipitation 2.74 0.96  
Year to date precipitation 21.07 26.02  
Sea Level Pressure  
Sea Level Pressure 30.16 in    
Wind  
Wind Speed 3 mph (SE)    
Max Wind Speed 18 mph    
Max Gust Speed 26 mph    
Visibility 10 miles    
Events      
T = Trace of Precipitation, MM = Missing Value Source: NWS Daily Summary

Daily Weather History Graph

Daily Weather History Graph

Search for Another Location

Airport or City:

Trip Planner

Search our weather history database for the weather conditions in past years. The results will help you decide how hot, cold, wet, or windy it might be!

Date:

Astronomy

Jul. 05, 2013 Rise Set
Actual Time 6:35 AM EDT 8:39 PM EDT
Civil Twilight 6:07 AM EDT 9:07 PM EDT
Nautical Twilight 5:34 AM EDT 9:40 PM EDT
Astronomical Twilight 4:58 AM EDT 10:16 PM EDT
Moon 4:30 AM EDT 6:37 PM EDT
Length of Visible Light 14h 59m
Length of Day
14h 04m
Waning Crescent, 6% of the Moon is Illuminated
Jul 5
Waning Crescent
Jul 8
New
Jul 15
First Quarter
Jul 22
Full
Jul 29
Last Quarter

Hourly Weather History & Observations

Time (EDT) Temp. Heat Index Dew Point Humidity Pressure Visibility Wind Dir Wind Speed Gust Speed Precip Events Conditions
12:01 AM 75.2 °F - 71.6 °F 89% 30.14 in 10.0 mi SSE 6.9 mph - N/A   Partly Cloudy
12:53 AM 73.9 °F - 70.0 °F 87% 30.17 in 10.0 mi SSE 8.1 mph - N/A   Clear
1:53 AM 73.9 °F - 68.0 °F 82% 30.17 in 10.0 mi South 8.1 mph - N/A   Clear
2:53 AM 73.0 °F - 68.0 °F 84% 30.15 in 10.0 mi Calm Calm - N/A   Clear
3:53 AM 73.0 °F - 69.1 °F 87% 30.15 in 10.0 mi Calm Calm - N/A   Clear
4:53 AM 73.0 °F - 69.1 °F 87% 30.16 in 10.0 mi NE 3.5 mph - N/A   Partly Cloudy
5:53 AM 73.0 °F - 69.1 °F 87% 30.16 in 10.0 mi Calm Calm - N/A   Partly Cloudy
6:07 AM 73.4 °F - 69.8 °F 88% 30.14 in 10.0 mi NE 4.6 mph - N/A   Mostly Cloudy
6:19 AM 73.4 °F - 69.8 °F 88% 30.14 in 10.0 mi Calm Calm - N/A   Mostly Cloudy
6:53 AM 73.0 °F - 69.1 °F 87% 30.17 in 10.0 mi Calm Calm - N/A   Mostly Cloudy
7:03 AM 73.4 °F - 69.8 °F 88% 30.15 in 10.0 mi NNE 3.5 mph - N/A   Mostly Cloudy
7:53 AM 73.9 °F - 70.0 °F 87% 30.19 in 10.0 mi ENE 3.5 mph - N/A   Overcast
8:08 AM 73.4 °F - 69.8 °F 88% 30.17 in 10.0 mi East 4.6 mph - N/A   Overcast
8:53 AM 75.0 °F - 71.1 °F 87% 30.19 in 10.0 mi East 3.5 mph - N/A   Mostly Cloudy
9:03 AM 77.0 °F - 71.6 °F 83% 30.17 in 10.0 mi ESE 5.8 mph - N/A   Scattered Clouds
9:53 AM 80.1 °F 83.8 °F 72.0 °F 76% 30.19 in 10.0 mi SE 3.5 mph - N/A   Partly Cloudy
10:53 AM 84.0 °F 90.2 °F 73.0 °F 69% 30.19 in 10.0 mi SSE 6.9 mph - N/A   Mostly Cloudy
11:03 AM 84.2 °F 90.9 °F 73.4 °F 70% 30.18 in 10.0 mi Variable 5.8 mph - N/A   Mostly Cloudy
11:53 AM 88.0 °F 95.6 °F 73.0 °F 61% 30.19 in 10.0 mi ESE 6.9 mph - N/A   Mostly Cloudy
12:53 PM 90.0 °F 97.9 °F 73.0 °F 57% 30.17 in 10.0 mi SSE 10.4 mph - N/A   Mostly Cloudy
1:53 PM 89.1 °F 95.0 °F 71.1 °F 55% 30.15 in 10.0 mi SSE 4.6 mph - N/A   Scattered Clouds
2:53 PM 91.0 °F 97.6 °F 71.1 °F 52% 30.12 in 10.0 mi SSE 11.5 mph - N/A   Mostly Cloudy
3:53 PM 84.0 °F 89.0 °F 71.1 °F 65% 30.12 in 10.0 mi East 11.5 mph 23.0 mph N/A   Mostly Cloudy
4:53 PM 81.0 °F 83.8 °F 68.0 °F 65% 30.17 in 10.0 mi SSW 6.9 mph - N/A   Mostly Cloudy
5:07 PM 80.6 °F 83.9 °F 69.8 °F 70% 30.15 in 10.0 mi Variable 5.8 mph - N/A   Overcast
5:29 PM 78.8 °F - 71.6 °F 78% 30.14 in 10.0 mi SSW 3.5 mph - N/A   Mostly Cloudy
5:53 PM 78.1 °F - 72.0 °F 81% 30.15 in 10.0 mi Calm Calm - N/A   Partly Cloudy
6:53 PM 79.0 °F - 72.0 °F 79% 30.14 in 10.0 mi Calm Calm - N/A   Partly Cloudy
7:53 PM 79.0 °F - 72.0 °F 79% 30.14 in 10.0 mi Calm Calm - N/A   Mostly Cloudy
8:34 PM 78.8 °F - 71.6 °F 78% 30.13 in 10.0 mi Calm Calm - 0.00 in   Mostly Cloudy
8:53 PM 79.0 °F - 72.0 °F 79% 30.15 in 10.0 mi Calm Calm - 0.00 in   Overcast
9:11 PM 78.8 °F - 71.6 °F 78% 30.13 in 10.0 mi South 4.6 mph - N/A   Mostly Cloudy
9:53 PM 77.0 °F - 72.0 °F 84% 30.16 in 10.0 mi Calm Calm - 0.00 in   Clear
10:53 PM 75.9 °F - 71.1 °F 85% 30.18 in 10.0 mi Calm Calm - N/A   Mostly Cloudy
11:53 PM 77.0 °F - 71.1 °F 82% 30.17 in 10.0 mi Calm Calm - N/A   Overcast